TimeCDT,TemperatureF,Dew PointF,Humidity,Sea Level PressureIn,VisibilityMPH,Wind Direction,Wind SpeedMPH,Gust SpeedMPH,PrecipitationIn,Events,Conditions,WindDirDegrees,DateUTC
12:15 AM,44.6,39.2,81,30.09,10.0,SW,3.5,-,N/A,,Clear,230,2012-10-09 05:15:00
12:35 AM,46.4,41.0,81,30.08,10.0,SSE,3.5,-,N/A,,Clear,160,2012-10-09 05:35:00
12:55 AM,48.2,39.2,71,30.08,10.0,SSE,3.5,-,N/A,,Clear,160,2012-10-09 05:55:00
1:15 AM,44.6,41.0,87,30.08,10.0,Calm,Calm,-,N/A,,Clear,0,2012-10-09 06:15:00
1:35 AM,46.4,41.0,81,30.08,10.0,South,4.6,-,N/A,,Clear,190,2012-10-09 06:35:00
2:15 AM,46.4,41.0,81,30.08,10.0,SSE,3.5,-,N/A,,Clear,160,2012-10-09 07:15:00
2:35 AM,48.2,39.2,71,30.08,10.0,SSE,3.5,-,N/A,,Clear,150,2012-10-09 07:35:00
2:55 AM,46.4,39.2,76,30.07,10.0,SE,4.6,-,N/A,,Clear,140,2012-10-09 07:55:00
3:15 AM,46.4,39.2,76,30.06,10.0,SE,5.8,-,N/A,,Clear,140,2012-10-09 08:15:00
3:35 AM,48.2,39.2,71,30.05,10.0,SE,5.8,-,N/A,,Clear,130,2012-10-09 08:35:00
3:55 AM,46.4,39.2,76,30.05,10.0,SE,6.9,-,N/A,,Clear,140,2012-10-09 08:55:00
4:15 AM,46.4,39.2,76,30.05,10.0,SSE,6.9,-,N/A,,Clear,150,2012-10-09 09:15:00
4:35 AM,46.4,39.2,76,30.04,10.0,SSE,8.1,-,N/A,,Clear,150,2012-10-09 09:35:00
4:55 AM,48.2,41.0,76,30.04,10.0,SSE,6.9,-,N/A,,Clear,150,2012-10-09 09:55:00
5:15 AM,48.2,41.0,76,30.04,10.0,SSE,8.1,-,N/A,,Clear,150,2012-10-09 10:15:00
5:35 AM,48.2,41.0,76,30.04,10.0,SSE,10.4,-,N/A,,Clear,150,2012-10-09 10:35:00
5:55 AM,48.2,41.0,76,30.04,10.0,SSE,6.9,-,N/A,,Clear,150,2012-10-09 10:55:00
6:15 AM,46.4,41.0,81,30.04,10.0,SE,5.8,-,N/A,,Clear,140,2012-10-09 11:15:00
6:35 AM,46.4,41.0,81,30.04,10.0,ESE,5.8,-,N/A,,Clear,120,2012-10-09 11:35:00
6:55 AM,46.4,41.0,81,30.04,10.0,ESE,5.8,-,N/A,,Clear,110,2012-10-09 11:55:00
7:15 AM,46.4,41.0,81,30.04,10.0,ESE,5.8,-,N/A,,Clear,110,2012-10-09 12:15:00
7:55 AM,46.4,41.0,81,30.04,9.0,ESE,6.9,-,N/A,,Clear,120,2012-10-09 12:55:00
8:15 AM,48.2,42.8,82,30.03,9.0,ESE,6.9,-,N/A,,Clear,120,2012-10-09 13:15:00
8:35 AM,50.0,44.6,82,30.04,9.0,ESE,8.1,-,N/A,,Clear,120,2012-10-09 13:35:00
8:55 AM,51.8,44.6,76,30.04,10.0,ESE,8.1,-,N/A,,Clear,120,2012-10-09 13:55:00
9:15 AM,53.6,44.6,72,30.03,10.0,SE,8.1,-,N/A,,Partly Cloudy,130,2012-10-09 14:15:00
9:35 AM,55.4,44.6,67,30.03,10.0,SE,10.4,-,N/A,,Partly Cloudy,140,2012-10-09 14:35:00
9:55 AM,57.2,44.6,63,30.03,10.0,SSE,9.2,-,N/A,,Scattered Clouds,150,2012-10-09 14:55:00
10:15 AM,59.0,46.4,63,30.03,10.0,South,13.8,18.4,N/A,,Mostly Cloudy,180,2012-10-09 15:15:00
10:35 AM,60.8,46.4,59,30.02,9.0,South,13.8,19.6,N/A,,Mostly Cloudy,190,2012-10-09 15:35:00
10:55 AM,62.6,46.4,55,30.02,10.0,South,16.1,23.0,N/A,,Mostly Cloudy,180,2012-10-09 15:55:00
11:15 AM,62.6,46.4,55,30.01,10.0,South,13.8,24.2,N/A,,Overcast,190,2012-10-09 16:15:00
11:35 AM,62.6,46.4,55,30.00,10.0,South,13.8,20.7,N/A,,Overcast,180,2012-10-09 16:35:00
11:55 AM,64.4,48.2,56,29.99,10.0,South,18.4,23.0,N/A,,Mostly Cloudy,170,2012-10-09 16:55:00
12:15 PM,64.4,48.2,56,29.98,10.0,South,15.0,24.2,N/A,,Overcast,180,2012-10-09 17:15:00
12:35 PM,64.4,48.2,56,29.96,10.0,South,15.0,20.7,N/A,,Overcast,190,2012-10-09 17:35:00
12:55 PM,66.2,48.2,52,29.95,10.0,South,15.0,21.9,N/A,,Overcast,180,2012-10-09 17:55:00
1:15 PM,66.2,48.2,52,29.93,10.0,South,12.7,20.7,N/A,,Overcast,170,2012-10-09 18:15:00
1:35 PM,66.2,50.0,56,29.92,10.0,South,11.5,20.7,N/A,,Overcast,190,2012-10-09 18:35:00
1:55 PM,66.2,50.0,56,29.91,10.0,South,11.5,19.6,N/A,,Overcast,170,2012-10-09 18:55:00
2:15 PM,66.2,50.0,56,29.90,10.0,South,9.2,-,N/A,,Overcast,170,2012-10-09 19:15:00
2:35 PM,66.2,50.0,56,29.90,10.0,South,13.8,17.3,N/A,,Overcast,180,2012-10-09 19:35:00
2:55 PM,66.2,50.0,56,29.90,10.0,SSW,12.7,-,N/A,,Overcast,200,2012-10-09 19:55:00
3:15 PM,66.2,51.8,60,29.90,10.0,SSW,13.8,-,N/A,,Overcast,200,2012-10-09 20:15:00
3:55 PM,66.2,53.6,64,29.91,10.0,SSW,13.8,-,N/A,,Overcast,210,2012-10-09 20:55:00
4:15 PM,66.2,51.8,60,29.92,10.0,SW,11.5,17.3,N/A,,Overcast,230,2012-10-09 21:15:00
4:35 PM,64.4,53.6,68,29.93,10.0,SW,9.2,-,N/A,,Overcast,220,2012-10-09 21:35:00
4:55 PM,64.4,53.6,68,29.93,10.0,SSW,6.9,-,N/A,,Overcast,210,2012-10-09 21:55:00
5:15 PM,64.4,53.6,68,29.94,10.0,SW,8.1,-,N/A,,Overcast,220,2012-10-09 22:15:00
5:55 PM,64.4,53.6,68,29.95,10.0,South,3.5,-,N/A,,Overcast,180,2012-10-09 22:55:00
6:15 PM,64.4,53.6,68,29.96,9.0,South,4.6,-,N/A,,Overcast,170,2012-10-09 23:15:00
6:35 PM,62.6,53.6,72,29.95,9.0,SSE,4.6,-,N/A,,Overcast,160,2012-10-09 23:35:00
6:55 PM,62.6,53.6,72,29.96,10.0,SSE,4.6,-,N/A,,Overcast,160,2012-10-09 23:55:00
7:15 PM,62.6,53.6,72,29.97,10.0,SE,3.5,-,N/A,,Overcast,130,2012-10-10 00:15:00
7:35 PM,62.6,53.6,72,29.97,10.0,SE,4.6,-,N/A,,Overcast,130,2012-10-10 00:35:00
7:55 PM,62.6,53.6,72,29.98,10.0,SSE,5.8,-,N/A,,Overcast,150,2012-10-10 00:55:00
8:15 PM,62.6,53.6,72,29.99,10.0,SE,5.8,-,N/A,,Overcast,130,2012-10-10 01:15:00
8:35 PM,62.6,53.6,72,30.00,10.0,SE,4.6,-,N/A,,Overcast,130,2012-10-10 01:35:00
8:55 PM,62.6,55.4,77,30.01,10.0,East,4.6,-,N/A,,Overcast,90,2012-10-10 01:55:00
9:15 PM,62.6,55.4,77,30.02,9.0,ESE,4.6,-,N/A,,Overcast,110,2012-10-10 02:15:00
9:35 PM,62.6,55.4,77,30.02,9.0,East,4.6,-,N/A,,Overcast,90,2012-10-10 02:35:00
9:55 PM,60.8,55.4,82,30.03,9.0,ESE,3.5,-,N/A,,Overcast,120,2012-10-10 02:55:00
10:15 PM,59.0,55.4,88,30.04,8.0,East,4.6,-,N/A,,Overcast,90,2012-10-10 03:15:00
10:35 PM,59.0,55.4,88,30.04,9.0,East,5.8,-,N/A,,Overcast,90,2012-10-10 03:35:00
10:55 PM,59.0,55.4,88,30.05,9.0,ENE,4.6,-,N/A,,Overcast,60,2012-10-10 03:55:00
11:15 PM,59.0,55.4,88,30.06,8.0,NE,5.8,-,N/A,,Overcast,50,2012-10-10 04:15:00
11:35 PM,59.0,55.4,88,30.06,7.0,ENE,4.6,-,N/A,,Overcast,60,2012-10-10 04:35:00
11:55 PM,59.0,55.4,88,30.07,9.0,ENE,3.5,-,N/A,,Overcast,70,2012-10-10 04:55:00